Wind_Speed
34 34 34 34 34 35 36 35 31 27 24 21 20 18 19 22 26 29 29 29 30 31 31 30 29 29 29 29 29 28 27 26 26 26 25 25 25 25 24 24 24 24 24 24 23 23 23 24 24 24 23 22 22 21 21 20 18 17 16 16 15 15 15 14 8 6 11 15 17 19 18 17 17 16 15 18 19 17 15 12 8 9 12 11 9
34 35 35 35 35 35 35 33 29 28 26 22 18 18 21 25 28 30 31 30 29 29 29 28 27 27 28 28 28 28 27 26 25 25 25 25 25 24 24 24 24 24 23 23 24 24 24 24 24 23 23 22 22 21 21 20 19 18 17 16 16 16 16 16 12 7 8 12 15 17 17 16 16 16 14 16 18 19 18 13 8 8 11 11 9
35 36 35 34 34 34 33 32 31 29 24 19 19 22 24 25 28 30 31 31 29 27 27 27 26 26 27 27 27 27 27 26 25 25 25 25 25 24 24 24 24 24 23 23 23 24 25 25 25 24 22 22 22 22 21 20 18 18 19 18 17 17 16 16 15 11 8 10 13 16 16 15 15 15 15 15 16 17 18 16 12 10 10 10 9
35 34 34 34 35 34 33 33 31 24 20 22 27 27 23 22 24 27 29 30 28 26 26 26 26 26 26 26 27 27 27 26 26 25 25 25 24 24 24 24 24 24 23 23 23 23 23 24 24 25 23 22 22 23 23 22 20 19 18 18 18 18 17 16 15 13 10 10 12 15 16 16 16 16 16 16 16 16 16 16 14 12 9 9 8
33 34 34 34 32 31 32 32 29 26 25 29 31 28 23 20 21 25 27 27 27 26 25 25 25 25 26 26 27 27 27 26 26 25 25 24 24 24 24 24 24 24 24 24 23 23 23 22 22 23 24 24 23 22 22 23 22 22 20 18 17 17 17 17 15 13 13 12 13 15 16 17 17 17 16 16 16 15 15 15 15 12 10 9 8
33 33 31 31 31 32 34 34 34 33 32 32 31 28 22 19 20 23 25 25 25 25 24 24 24 25 26 26 26 27 26 26 25 25 25 24 24 23 24 24 24 24 24 24 24 24 24 24 23 22 24 25 25 23 22 22 22 23 22 20 17 15 16 17 16 14 14 15 14 14 16 16 16 17 15 15 16 15 13 15 15 11 9 8 8
30 30 31 33 35 36 36 36 35 34 33 33 31 26 21 18 20 23 25 24 24 24 24 24 25 25 26 26 26 26 26 25 25 25 24 24 24 24 24 24 23 23 24 24 24 24 24 24 24 23 23 25 25 24 22 22 22 23 23 22 19 16 15 15 15 14 14 13 13 14 15 16 16 16 15 15 16 14 10 10 11 9 8 8 8
29 32 35 37 36 35 35 35 35 34 33 32 29 24 21 20 22 24 25 23 23 24 24 25 25 25 26 27 26 26 25 25 24 24 24 24 24 25 25 24 24 23 23 23 23 24 24 24 24 23 23 24 25 24 23 23 23 23 22 22 21 20 17 15 14 13 12 12 12 12 15 16 15 15 15 15 14 10 7 8 11 11 10 10 8
33 36 37 36 36 36 36 34 32 31 30 29 27 25 24 24 25 26 24 22 22 23 24 25 25 25 25 25 25 25 24 25 25 25 24 24 25 25 25 25 24 23 22 22 23 23 23 24 24 23 21 21 22 23 23 23 24 24 24 23 22 22 20 17 15 13 11 11 11 11 12 13 14 13 13 13 12 10 9 11 11 10 11 10 8
37 39 38 37 37 35 32 30 30 29 28 29 29 29 30 29 28 27 25 23 23 23 24 25 25 25 25 25 25 24 24 25 25 24 24 24 25 26 25 24 23 22 21 20 21 22 22 23 24 22 20 19 21 22 22 23 23 24 25 25 25 23 21 18 16 14 12 11 11 11 10 11 14 13 12 13 13 12 11 10 9 8 9 8 6
40 39 36 34 32 30 30 32 33 32 32 34 36 37 37 34 32 31 29 26 25 24 25 25 25 26 26 25 25 25 25 25 25 23 23 24 26 27 26 24 22 21 21 20 19 19 20 21 22 22 21 21 22 23 23 23 23 23 23 24 25 24 23 20 18 16 14 12 13 13 11 12 15 15 13 14 14 13 13 10 8 8 5 5 3
37 35 30 28 29 31 34 36 38 38 39 41 42 43 41 38 36 34 32 29 27 25 25 26 26 26 25 25 25 25 25 25 24 22 23 24 25 27 27 25 23 21 21 20 18 17 18 19 21 23 24 24 23 24 24 24 24 24 23 23 23 24 24 23 20 19 18 16 15 15 15 15 16 16 14 14 14 14 14 13 11 8 5 4 4
32 29 28 29 32 35 38 41 43 43 42 42 43 42 40 37 35 33 33 31 28 26 25 25 25 25 25 25 26 26 26 25 23 22 23 24 24 25 27 28 27 25 23 22 20 18 18 18 18 21 23 23 24 26 27 27 26 25 25 25 25 24 23 23 21 20 21 20 19 19 18 17 17 17 15 13 13 15 15 14 13 10 8 5 4
28 28 32 35 37 40 43 43 43 42 41 41 41 39 36 35 34 33 33 31 27 25 24 24 25 25 25 26 25 26 26 25 22 21 22 23 23 23 24 27 29 29 27 25 24 22 20 19 18 19 20 22 24 26 27 28 27 26 26 27 28 26 25 24 23 22 22 22 22 22 20 19 18 18 15 12 12 13 14 15 13 12 11 10 12
28 31 37 39 40 41 42 41 40 40 39 39 39 37 33 32 32 33 32 29 25 24 24 24 24 24 25 25 25 25 26 23 21 21 22 22 22 22 21 23 27 29 29 27 26 25 23 22 21 19 20 22 24 24 25 25 25 25 25 26 27 27 26 27 27 26 25 25 24 24 22 20 20 20 18 16 15 15 15 15 15 15 15 16 18
33 36 38 39 39 39 38 39 39 38 38 38 36 34 32 31 33 35 32 26 22 22 22 22 23 23 23 23 24 25 25 22 20 22 22 21 21 21 21 20 21 24 27 27 26 26 24 23 22 22 22 22 21 22 23 24 23 23 24 25 26 26 27 27 26 26 27 28 28 28 26 24 22 21 19 18 17 17 16 16 17 16 15 14 15
36 36 37 37 38 37 37 40 40 38 38 37 35 34 34 34 36 36 29 23 20 20 21 21 21 21 21 22 23 23 23 22 20 21 22 21 20 21 21 21 19 19 21 23 24 25 26 26 24 23 24 24 23 22 23 24 25 23 22 23 24 24 25 26 24 24 24 25 26 27 27 26 23 20 19 18 16 15 14 15 18 16 12 8 7
35 36 37 36 36 37 39 39 39 39 38 36 36 37 36 35 35 32 25 21 20 20 20 19 19 20 20 21 22 22 23 23 20 20 21 21 21 21 21 21 20 19 19 19 21 23 25 25 25 25 25 25 24 24 24 26 27 25 23 24 23 22 23 24 23 24 24 22 23 23 23 23 23 22 21 19 17 16 17 18 16 13 12 9 8
36 37 36 36 37 39 40 39 39 39 38 37 38 37 36 35 33 29 25 22 20 19 18 17 17 17 18 19 19 20 21 22 20 20 20 20 20 20 20 20 19 19 19 19 20 21 22 22 22 24 26 25 23 23 25 27 30 29 26 25 23 23 24 23 23 24 24 24 24 23 22 21 20 21 21 21 19 18 21 21 17 14 15 14 12
38 37 36 37 39 40 40 40 40 40 38 38 38 35 34 34 30 28 28 24 18 15 15 15 15 15 16 17 18 18 20 21 20 19 19 20 20 20 20 20 19 18 18 18 19 20 22 22 22 23 24 24 24 24 24 27 29 30 29 27 24 23 23 21 21 21 21 21 21 22 22 21 20 20 20 21 20 20 21 23 22 20 19 17 15
37 37 37 38 40 41 41 41 41 40 38 38 38 36 36 33 28 28 28 21 14 13 13 13 13 14 13 14 16 17 19 20 20 19 18 19 20 21 21 21 20 18 18 18 19 19 21 24 26 26 25 25 25 25 25 27 27 29 31 30 26 23 21 20 20 20 19 18 18 18 19 20 19 20 20 21 21 21 21 22 24 24 23 21 18
37 38 38 39 41 42 43 42 41 39 38 37 36 36 36 30 26 27 24 16 12 12 12 11 11 12 12 13 15 16 17 19 20 20 20 20 20 21 22 21 20 19 19 19 20 21 22 23 25 25 24 25 26 27 28 29 27 26 30 31 27 23 23 22 21 20 19 18 17 16 16 16 16 17 17 19 21 21 21 22 23 24 24 24 22
38 39 40 40 41 42 42 42 40 38 37 36 34 35 34 28 25 25 21 15 12 11 10 10 10 10 11 12 14 17 18 19 20 20 21 21 20 21 21 21 20 21 21 21 21 22 23 23 22 22 22 23 25 27 30 30 27 24 27 28 26 23 22 22 21 20 20 19 18 16 16 16 16 16 16 17 19 19 21 21 21 22 23 24 24
40 41 41 40 41 41 41 40 39 37 35 34 33 34 31 25 23 23 18 14 13 11 10 11 11 11 12 13 15 17 19 20 20 20 20 20 19 19 20 21 21 22 23 23 23 22 22 22 22 22 22 22 23 26 29 28 24 21 21 21 19 19 18 18 18 19 19 19 18 17 17 17 18 17 16 17 17 17 17 19 20 21 21 23 23
41 41 41 41 42 41 40 39 36 35 35 34 33 33 28 23 22 21 17 14 13 12 11 11 11 12 12 13 15 16 17 18 19 18 17 18 18 18 19 20 21 22 23 23 23 22 20 19 18 17 17 17 17 18 19 19 17 16 16 16 15 15 16 15 14 16 17 17 17 17 18 20 21 20 17 15 14 15 15 16 18 20 20 21 21
41 40 41 41 41 39 38 36 33 34 35 34 33 31 26 22 22 21 17 14 13 12 12 11 11 11 12 12 14 15 15 16 17 16 15 14 15 16 17 18 19 20 21 21 22 22 20 16 13 13 13 12 12 11 11 11 10 9 11 13 14 13 12 12 12 12 13 12 12 12 13 15 17 19 19 16 14 15 16 16 17 18 20 20 19
40 40 41 40 38 37 35 33 32 33 34 34 32 29 24 22 22 21 18 15 13 12 12 11 10 10 11 12 13 14 14 15 14 14 13 12 11 12 14 16 18 19 19 19 18 19 22 20 14 12 12 11 10 10 10 9 9 9 9 10 11 11 10 10 10 10 10 9 8 8 7 7 8 10 14 19 19 16 16 17 17 17 18 18 16
39 40 40 38 36 35 33 31 32 32 33 33 31 26 24 24 23 21 19 17 15 13 12 12 11 12 12 12 12 12 13 14 13 12 12 11 10 10 11 12 13 14 15 13 9 10 16 16 11 9 10 10 9 10 10 10 9 9 8 8 8 9 9 9 8 9 10 10 9 9 8 8 8 7 8 13 18 18 18 18 17 15 15 14 13
39 38 37 35 35 33 31 31 31 31 32 32 29 26 26 26 25 24 23 20 17 16 15 14 14 14 13 12 12 12 12 11 10 9 9 8 7 7 7 7 7 8 9 8 5 5 7 10 11 10 9 8 6 5 6 7 7 8 8 8 8 8 9 9 9 10 10 11 11 11 10 10 11 10 9 10 13 16 18 19 18 16 15 15 15
38 35 34 34 34 32 30 31 31 31 31 30 28 28 29 27 24 24 24 21 17 17 18 17 16 15 13 12 12 12 13 14 12 7 5 6 6 6 7 7 7 8 8 8 8 7 8 9 8 7 6 5 5 5 7 9 10 11 10 9 8 8 9 10 10 10 11 11 12 12 11 10 10 11 11 10 10 11 13 15 16 16 16 17 17
36 34 34 34 33 31 30 31 31 31 30 29 27 28 30 29 26 23 22 22 20 17 17 18 16 14 13 13 13 12 13 15 14 8 4 5 6 6 7 9 10 11 11 12 11 12 12 11 9 8 7 6 5 6 7 8 9 9 8 8 8 8 8 9 10 10 11 12 12 12 12 12 12 12 12 12 12 12 12 12 13 15 15 16 15
35 35 35 34 32 30 30 31 31 30 29 28 27 26 26 26 26 27 26 24 22 19 15 15 15 13 12 13 13 12 11 11 11 8 5 5 6 6 6 8 9 10 12 12 12 11 11 11 10 10 9 7 5 5 6 7 7 7 7 7 8 8 9 10 11 12 13 13 13 13 13 13 13 14 15 16 16 16 16 16 16 16 16 16 15
36 36 34 33 31 30 30 30 29 28 27 27 27 26 24 22 22 25 28 28 25 22 16 10 9 10 8 8 11 13 12 10 8 8 7 4 3 1 4 6 7 6 8 9 10 9 7 7 8 9 9 8 7 6 5 5 6 7 7 8 9 9 10 12 12 13 13 13 12 12 11 11 11 12 14 15 14 14 14 15 15 13 13 14 16
37 35 33 31 30 30 30 29 29 28 27 27 27 25 24 22 21 22 23 24 24 24 21 18 16 14 12 10 8 8 11 13 11 6 4 6 8 11 12 14 13 11 10 11 10 8 7 6 7 7 7 6 6 6 6 7 8 8 8 8 8 8 10 11 11 11 12 11 11 11 10 9 9 9 9 10 10 9 9 10 10 9 8 10 11
37 34 32 31 30 30 31 30 30 29 27 27 26 25 24 23 22 21 19 18 18 20 20 22 21 18 15 16 16 13 8 6 7 3 7 11 10 9 9 10 11 9 7 7 6 5 4 4 4 3 4 5 6 6 7 8 8 7 7 8 8 8 8 8 8 8 9 9 9 9 9 9 9 9 8 8 8 8 8 8 9 10 10 11 10
36 34 33 32 31 31 31 30 30 29 28 27 26 25 24 23 22 21 20 18 17 17 18 20 21 18 15 14 14 15 16 12 7 10 13 12 8 6 7 8 8 6 4 4 2 2 3 4 5 5 5 6 7 7 7 7 7 7 7 7 7 7 7 6 6 7 9 9 8 8 9 9 9 9 9 9 9 9 9 9 9 11 12 11 10
35 33 33 33 32 32 31 30 29 29 28 27 26 24 23 23 22 21 20 19 18 17 17 18 20 18 15 14 13 12 13 13 13 13 12 11 9 7 6 6 4 3 3 3 2 3 5 5 6 7 7 7 7 7 6 6 7 8 8 8 8 6 6 6 6 8 9 9 8 8 9 9 9 9 9 9 9 9 10 11 11 11 12 11 10
34 34 33 32 32 31 31 30 30 29 28 27 26 24 23 22 21 20 19 19 18 18 17 17 17 15 15 16 17 15 15 14 13 11 11 9 9 8 6 4 3 4 5 4 4 5 6 6 6 6 7 7 7 7 6 5 5 5 6 7 7 6 5 5 6 7 8 8 7 7 7 7 8 8 8 8 9 9 9 9 10 10 11 11 10
36 36 33 31 30 30 30 29 29 28 28 27 26 25 23 22 21 20 19 19 18 17 17 17 15 14 16 18 17 16 16 14 11 9 9 9 8 7 5 3 3 4 5 5 5 5 5 5 6 6 6 6 7 7 6 5 6 6 5 5 5 5 4 3 3 4 5 6 6 5 6 6 6 7 7 8 8 9 8 8 8 8 9 10 10
37 36 33 31 30 30 29 28 27 27 27 27 26 24 23 22 21 20 19 19 18 17 17 17 15 15 17 18 17 13 11 9 9 8 7 7 7 5 4 3 3 5 5 5 5 5 5 5 5 6 6 7 7 7 7 6 5 6 7 6 5 5 5 4 4 4 5 5 5 4 4 5 5 6 6 6 6 7 7 8 8 8 8 9 10
36 34 32 30 30 31 30 28 27 27 28 27 26 24 23 23 22 21 20 19 18 17 17 17 17 16 17 17 17 13 7 6 8 8 6 6 5 3 3 3 4 5 5 5 6 5 5 6 6 5 6 6 6 6 7 7 6 5 6 6 6 5 4 4 4 4 4 4 3 3 4 4 4 4 4 4 4 5 6 6 7 8 8 8 8
35 32 31 31 31 30 29 28 28 29 28 27 26 25 24 23 22 21 20 19 19 18 18 17 17 18 17 16 16 13 9 7 8 8 6 5 4 4 4 3 4 4 4 4 5 5 5 6 5 5 6 7 6 6 7 7 6 5 5 6 7 6 5 3 3 4 5 4 2 2 2 3 3 3 2 2 3 4 5 5 6 6 7 7 7
33 31 30 30 30 29 28 29 29 28 27 27 26 25 24 24 23 21 20 19 19 19 18 18 18 18 18 16 14 12 10 8 8 7 6 6 5 4 3 2 1 2 2 3 4 5 5 6 5 5 6 7 7 7 7 7 7 6 5 5 6 6 6 4 3 3 4 4 3 3 3 3 2 2 2 0 1 2 3 3 3 4 5 6 6
30 29 29 29 29 28 28 28 28 27 27 27 26 25 24 24 23 22 21 20 20 19 19 18 19 19 19 17 14 12 10 8 7 7 7 7 5 4 3 3 2 1 1 1 2 3 4 5 4 4 4 5 6 6 5 6 6 6 6 5 5 5 5 4 3 3 3 3 3 4 4 3 3 3 2 1 0 1 1 0 1 2 3 4 4
29 29 29 28 27 28 28 27 27 27 26 26 26 26 25 24 24 23 21 21 21 20 19 19 19 19 18 18 16 14 12 9 8 7 7 7 6 6 5 4 3 2 1 1 0 1 3 3 2 2 2 3 4 4 4 4 4 5 5 5 5 4 4 3 2 2 2 2 2 3 3 3 4 3 2 2 1 2 1 2 1 1 1 2 2
29 29 29 28 28 28 27 27 27 26 26 25 25 25 25 24 24 23 22 21 21 20 20 21 20 19 18 18 17 16 14 12 10 8 7 7 7 7 6 6 5 3 2 3 2 0 2 2 2 2 2 3 3 3 3 4 4 4 4 4 3 3 2 2 2 2 2 1 1 2 2 2 3 3 2 3 2 2 2 2 2 2 1 2 2
28 28 28 28 28 28 28 28 27 26 26 25 24 23 24 24 23 22 22 22 21 20 20 21 21 19 19 19 18 17 16 15 12 10 8 8 8 8 8 8 6 4 4 4 3 2 1 2 2 3 3 3 2 3 3 3 3 3 3 4 3 2 2 2 2 2 2 1 1 1 1 1 2 2 2 2 2 2 2 2 3 2 2 2 2
27 27 26 26 26 26 27 27 27 26 26 26 24 23 23 23 23 22 22 22 22 21 21 21 21 20 19 19 19 18 17 16 14 12 9 8 8 9 10 9 7 6 6 6 5 3 3 3 2 3 3 3 3 3 3 3 3 3 4 4 3 3 3 3 3 2 2 2 1 1 0 1 1 1 1 2 2 2 3 4 4 3 3 3 2
26 26 25 25 25 25 25 26 25 25 25 25 25 24 23 22 23 23 22 22 22 22 21 21 21 20 19 19 19 19 18 17 16 14 12 10 8 9 10 10 9 7 6 6 6 6 5 4 3 3 3 4 4 4 4 4 4 4 5 5 4 4 4 4 4 4 3 3 2 2 1 0 1 1 1 1 1 2 2 3 4 4 4 4 3
27 26 25 24 24 24 24 24 24 24 24 24 24 24 23 23 23 23 23 22 23 23 22 21 21 20 20 20 19 19 18 17 16 15 13 11 9 9 10 10 10 9 7 7 7 7 7 6 5 4 4 4 5 5 4 5 5 6 7 7 6 5 5 5 5 5 4 4 3 3 2 2 1 0 1 1 1 1 1 2 3 3 4 4 4
28 27 26 25 24 24 24 24 24 24 24 23 23 23 23 23 23 23 23 22 22 23 23 22 22 21 20 20 19 19 18 17 16 15 13 12 11 10 10 10 9 9 8 7 7 7 8 7 7 6 5 5 5 5 5 6 7 7 7 7 7 7 6 6 5 5 5 4 4 4 4 3 2 2 1 1 1 1 1 2 2 3 3 4 4
Wind_Direction
314 313 314 314 313 314 313 312 311 309 307 304 301 303 311 314 311 306 300 295 290 281 267 255 248 243 240 235 232 231 230 227 225 224 224 226 228 230 230 230 230 230 230 229 228 228 230 231 233 234 232 230 232 234 235 235 233 229 229 230 232 235 237 239 248 273 275 277 284 290 295 301 303 303 304 305 305 306 315 330 335 328 328 329 329
319 318 317 316 315 315 314 314 315 313 310 305 303 307 312 316 319 317 306 294 288 280 266 253 248 244 240 235 232 231 230 227 224 222 222 225 228 229 229 229 231 230 228 228 229 230 232 233 233 233 230 229 229 231 233 233 230 229 228 228 232 235 236 243 252 260 276 280 283 289 294 297 300 301 302 305 307 307 309 319 328 320 321 326 332
320 319 318 318 318 318 318 319 318 314 310 307 311 312 309 314 323 323 311 297 288 280 266 254 249 245 239 234 231 229 228 226 224 222 222 223 226 228 228 229 230 229 227 228 229 229 231 232 232 231 229 228 229 230 231 231 228 228 228 227 230 235 235 241 248 251 265 279 281 286 291 294 296 298 300 303 306 306 305 309 318 317 311 316 327
321 322 322 322 322 322 323 322 319 316 315 316 316 311 303 308 322 324 315 300 288 280 269 256 249 245 237 231 228 226 225 225 224 223 223 224 226 228 229 229 229 228 229 230 230 229 230 230 230 230 229 229 230 230 230 231 229 228 229 228 227 232 236 242 250 255 263 272 275 278 285 292 293 294 299 301 301 303 303 303 312 317 304 297 313
324 324 323 322 324 327 327 325 323 319 315 313 312 304 294 299 314 320 316 302 287 280 271 257 248 243 236 230 227 226 225 225 224 224 224 225 227 229 229 229 228 228 230 232 232 232 233 234 232 229 227 228 229 229 229 231 231 231 233 232 231 233 238 245 253 258 260 266 271 275 281 285 288 291 294 295 295 298 300 296 302 315 311 296 296
324 323 324 326 327 326 324 321 318 314 310 309 307 299 292 297 309 318 319 305 287 278 270 258 248 242 236 231 228 227 226 225 225 225 225 226 228 230 230 229 229 229 230 233 234 235 236 238 238 233 227 225 227 229 230 229 230 232 233 232 232 234 236 240 245 249 255 263 270 277 282 283 286 289 290 291 291 288 293 296 298 308 313 298 289
326 327 328 327 322 319 318 316 313 311 309 307 303 297 295 298 306 316 319 308 288 276 268 258 249 243 238 234 230 229 227 225 225 226 226 227 228 229 230 229 229 230 232 234 235 236 238 238 238 237 230 225 225 227 228 229 229 231 231 229 228 229 232 235 238 244 252 264 271 276 280 281 283 286 286 292 292 281 284 298 297 302 313 305 295
330 329 326 321 318 317 317 315 313 311 310 310 307 304 303 303 305 312 315 306 289 275 267 259 251 244 239 236 232 230 227 225 224 226 227 227 227 228 229 230 231 232 235 237 236 236 238 237 237 237 232 227 226 227 227 228 229 229 228 227 226 228 232 234 236 243 249 258 264 268 273 275 278 283 284 290 291 282 275 279 279 291 307 306 298
330 326 322 319 318 317 316 315 315 316 318 320 319 317 313 309 308 308 309 304 291 276 265 258 251 243 238 235 232 228 225 224 225 226 227 226 226 228 229 230 231 233 235 237 237 236 236 235 235 235 232 227 226 229 229 228 229 229 227 224 224 227 232 233 234 236 241 246 251 258 267 271 273 279 281 280 282 281 271 261 264 283 299 302 296
326 322 319 317 317 316 317 320 324 327 327 326 322 318 313 310 307 306 306 303 291 275 264 256 249 242 237 233 230 226 223 223 225 226 227 227 227 227 229 229 228 229 232 233 233 234 233 233 234 234 233 231 230 231 230 228 228 229 228 226 224 222 222 224 225 227 231 236 240 245 256 267 269 271 274 276 282 291 286 266 255 269 293 310 301
323 319 316 316 318 323 328 330 329 327 323 319 316 312 309 306 304 304 303 299 289 275 262 253 246 240 235 231 228 225 223 224 225 228 231 231 229 227 227 227 225 226 228 228 228 230 230 231 232 232 233 233 233 232 231 229 228 227 227 227 225 223 220 219 218 220 224 231 236 236 238 254 265 268 274 279 285 298 303 295 276 263 276 307 290
323 320 320 325 331 334 333 328 322 317 314 312 310 308 306 303 301 301 299 294 288 275 260 249 242 237 233 231 229 226 226 227 228 231 235 236 233 226 222 222 221 221 223 224 227 229 230 230 231 231 232 232 232 232 231 231 229 228 228 226 225 225 225 225 224 222 223 226 230 233 234 244 257 263 267 273 280 290 302 311 312 299 290 284 256
323 324 330 335 334 331 325 319 313 310 309 309 309 308 306 304 302 302 298 293 286 273 258 246 239 234 231 230 229 229 230 230 231 235 238 238 235 226 218 216 217 218 220 224 227 229 230 230 230 231 232 231 232 233 232 232 233 232 232 231 229 228 229 230 231 230 230 229 226 229 233 235 245 254 257 261 270 281 291 302 312 324 340 329 298
326 331 332 330 327 323 319 315 311 310 311 312 311 309 306 305 305 303 299 293 283 270 257 244 237 233 230 229 229 230 232 233 235 239 239 237 235 230 221 216 217 219 222 225 227 227 227 229 232 234 232 230 230 231 231 231 231 232 232 232 232 232 232 233 233 232 233 231 230 234 237 236 242 252 256 255 259 271 281 288 295 310 322 312 297
329 330 327 323 323 321 319 316 314 313 314 313 311 308 305 306 306 304 299 291 280 269 256 243 236 232 230 229 229 231 234 235 236 239 240 238 235 233 228 223 220 221 223 225 226 226 226 228 232 234 234 232 230 227 225 224 224 225 228 229 231 232 234 235 234 234 233 232 235 240 244 244 247 253 258 255 253 259 269 278 284 290 295 294 291
326 324 322 321 321 320 319 318 317 316 315 314 313 311 310 310 308 305 298 288 278 268 255 242 235 232 229 228 228 231 235 235 233 236 239 239 238 236 235 232 224 219 220 223 224 226 228 229 230 232 234 234 231 225 221 217 216 218 221 225 229 232 236 237 236 236 235 235 239 243 247 250 252 255 259 257 255 258 263 269 275 280 287 292 289
322 322 321 321 321 320 319 318 317 316 316 315 314 314 313 311 307 303 295 285 280 270 253 240 235 232 229 228 226 230 234 233 233 237 240 239 239 238 238 238 234 226 224 224 223 226 230 232 232 231 232 233 233 229 222 214 211 212 213 219 225 230 235 237 235 235 237 238 240 243 245 246 245 245 247 246 246 247 245 250 259 264 270 275 275
324 323 322 321 321 321 320 318 316 316 316 315 313 312 311 308 305 303 298 288 284 274 255 241 234 230 228 228 226 228 234 234 235 239 242 241 240 238 236 235 236 237 236 232 229 228 230 232 231 229 229 232 233 232 226 215 208 207 209 215 221 227 232 233 231 232 235 239 241 244 244 243 240 237 238 240 238 229 225 233 242 244 244 244 247
326 323 322 322 321 321 320 319 317 317 315 314 312 309 308 307 304 305 305 295 282 271 256 241 232 227 226 227 226 228 235 239 240 241 243 243 241 239 237 232 230 232 232 232 233 233 232 233 232 230 229 230 230 230 227 217 208 206 209 212 216 223 229 229 228 232 235 238 241 245 247 247 245 243 243 246 245 234 229 234 235 227 229 237 243
325 323 322 321 321 320 320 318 317 316 314 313 311 308 307 305 304 308 308 294 275 263 253 240 232 227 225 227 229 231 237 243 244 243 244 244 242 239 237 230 227 226 226 227 231 234 235 236 237 234 231 228 228 228 229 223 212 206 207 207 209 221 231 232 234 238 242 242 241 242 244 247 249 250 248 250 250 244 236 237 235 228 227 233 240
325 324 322 321 320 320 319 318 316 315 314 311 309 308 306 303 304 311 308 290 266 258 251 239 232 229 226 228 233 237 241 246 248 247 246 246 244 241 236 229 223 222 223 227 229 230 232 233 235 236 234 231 228 226 228 230 220 208 206 209 214 225 234 237 240 241 243 245 245 243 245 247 248 249 248 247 248 246 241 238 237 235 231 229 232
324 323 321 320 320 319 319 318 317 315 313 311 308 308 307 305 309 313 305 286 269 262 251 241 236 232 231 233 238 244 247 250 252 252 251 249 246 243 237 228 220 217 219 224 228 230 232 233 232 232 230 229 228 225 226 230 226 212 208 214 222 227 229 232 237 238 237 241 243 242 245 248 246 244 244 242 242 242 240 238 238 237 237 235 233
324 323 321 320 320 320 319 318 317 315 314 313 310 310 308 307 313 313 301 285 278 267 251 245 242 239 241 243 247 254 256 257 257 255 254 252 248 242 236 227 219 214 216 222 228 230 233 235 234 232 229 226 225 223 223 228 229 219 213 217 223 226 226 226 227 225 226 229 230 232 237 241 240 239 241 243 242 238 234 233 234 236 238 239 238
325 324 322 321 321 320 319 319 318 317 318 317 315 313 309 309 316 313 298 284 279 268 255 252 247 247 254 256 258 262 263 263 262 258 254 252 249 242 235 228 219 213 214 222 229 232 235 238 237 234 229 225 223 222 223 228 228 222 218 221 225 231 234 233 225 218 215 216 217 220 228 234 234 234 238 245 246 241 233 228 229 233 237 240 242
326 325 324 323 322 321 321 321 321 322 323 321 318 314 312 314 319 313 298 283 276 269 262 256 248 248 253 257 263 268 267 265 265 264 258 252 248 242 235 229 224 217 214 219 228 236 243 243 236 227 221 221 223 222 223 227 228 227 230 232 233 237 241 241 233 222 217 216 213 214 222 231 234 236 240 242 240 236 232 226 225 229 234 240 245
327 326 325 324 324 324 323 323 324 326 326 324 319 315 314 318 319 313 301 285 274 270 268 261 253 252 255 258 264 269 271 267 264 265 263 255 247 241 234 228 226 223 218 220 227 236 243 240 228 215 212 219 227 225 226 232 230 222 220 218 217 221 224 223 220 216 216 218 215 212 218 227 233 238 238 231 224 223 223 220 219 222 225 229 235
328 327 326 325 326 326 325 324 325 327 327 325 320 317 320 323 320 313 305 293 280 273 267 263 262 260 261 265 267 269 271 270 265 261 259 253 245 237 230 227 227 227 228 229 230 236 240 238 230 219 215 216 217 212 212 213 201 186 186 194 198 203 207 209 213 215 217 221 222 219 221 226 236 243 234 222 217 218 217 214 213 215 218 220 225
329 327 326 326 326 326 324 324 325 327 327 324 320 321 327 327 319 311 304 296 288 280 270 262 261 262 264 268 273 273 269 265 263 260 253 244 236 231 225 221 222 223 226 227 225 228 230 223 203 182 182 178 169 169 178 186 186 186 190 192 193 197 199 200 206 213 215 219 224 230 237 240 244 258 250 226 215 209 209 210 212 214 218 217 217
329 328 327 327 327 325 325 326 327 328 327 324 323 326 329 327 320 314 308 297 284 276 273 266 259 260 265 268 270 273 272 270 271 263 244 226 219 220 213 206 208 210 208 209 204 185 176 166 150 145 153 157 153 160 185 204 212 214 212 211 210 208 205 204 210 217 221 227 235 242 251 253 248 251 261 248 221 206 203 205 208 209 210 208 211
330 329 329 329 327 326 326 328 329 329 327 325 326 328 329 327 325 321 318 310 293 275 270 270 265 258 256 262 271 271 272 284 298 287 238 221 223 224 220 215 215 216 215 219 219 197 166 152 149 155 165 179 194 207 213 216 218 218 218 218 218 216 217 219 221 224 227 233 237 239 241 244 241 239 244 247 239 225 216 212 211 207 200 198 205
330 329 330 328 326 327 328 329 329 328 327 327 329 330 329 328 328 327 326 323 315 298 279 272 272 266 254 261 279 278 269 282 300 303 265 242 244 239 233 226 218 214 213 213 208 196 183 176 172 174 180 183 184 189 188 186 186 187 189 198 209 220 229 230 228 228 227 229 232 233 231 231 231 233 239 247 252 255 252 247 238 226 215 208 204
330 328 328 326 326 328 330 329 327 327 328 329 332 332 329 328 329 331 331 330 327 322 303 278 275 279 267 260 272 278 274 279 290 297 295 281 269 262 250 233 221 215 209 199 186 177 175 173 169 172 178 176 168 170 171 169 173 181 192 214 233 244 242 233 228 226 225 226 229 232 234 235 234 236 242 248 252 255 254 248 240 230 224 218 212
332 328 327 326 327 329 330 328 327 327 329 330 331 330 329 328 327 328 330 332 334 337 337 323 310 310 297 271 262 260 258 259 271 294 309 297 261 129 88 87 91 111 135 136 130 129 134 137 140 148 158 164 173 191 203 215 227 234 236 237 238 235 229 225 224 223 223 225 228 227 230 235 234 234 236 236 238 244 242 234 227 225 227 228 221
334 331 328 327 328 328 329 329 328 328 328 330 331 330 329 329 328 326 327 331 335 340 344 347 350 356 360 352 328 280 260 256 259 283 4 71 88 83 77 70 63 68 85 95 99 109 118 122 129 140 153 165 183 206 218 226 232 236 235 230 221 217 220 225 227 226 224 225 226 225 227 231 229 226 226 225 226 234 236 230 226 229 243 253 242
336 334 331 330 329 329 330 330 329 329 329 331 333 332 331 330 330 329 327 326 329 332 334 336 342 351 358 1 8 13 356 294 243 190 83 79 78 66 58 55 50 48 57 69 84 108 131 147 160 173 185 191 196 200 203 207 210 212 214 213 211 215 223 224 222 220 214 212 214 218 223 227 225 223 226 229 230 237 246 248 246 247 256 271 275
336 335 333 332 331 330 330 330 330 330 331 331 331 332 332 331 330 330 329 327 326 327 329 332 337 342 344 349 3 20 25 31 61 78 70 64 55 36 45 62 65 60 53 52 68 126 154 173 183 180 180 183 183 184 190 194 194 195 197 200 206 215 217 207 202 206 205 201 204 213 217 219 221 223 228 233 235 238 243 245 245 246 250 260 275
336 335 333 331 330 330 331 331 331 333 334 334 332 332 333 334 335 333 332 331 331 331 332 333 336 342 347 347 346 354 5 14 26 37 41 41 35 33 51 77 91 99 95 84 109 144 148 155 166 170 174 178 177 178 185 190 192 196 197 195 193 195 195 196 204 213 209 202 204 216 221 221 221 223 226 229 232 236 240 244 246 246 247 253 266
337 335 332 329 330 332 333 332 333 335 336 335 336 335 334 335 337 337 335 335 334 335 336 337 339 349 354 348 341 338 337 340 350 1 8 15 23 33 51 77 105 127 134 135 143 150 151 154 159 163 170 175 173 171 173 175 179 185 188 185 181 181 190 206 214 211 203 196 200 215 221 217 215 218 220 223 228 232 236 243 247 245 245 248 256
337 335 332 331 332 334 334 333 333 336 336 336 338 338 335 335 337 337 336 337 336 336 337 337 341 350 352 346 343 341 340 345 0 14 16 17 24 33 40 59 113 133 138 140 140 145 154 158 158 159 163 164 161 156 155 161 166 165 159 155 160 169 182 196 194 181 180 186 195 206 206 199 197 202 208 216 223 228 234 243 244 242 244 246 246
336 334 333 333 335 335 335 335 335 336 337 337 337 337 337 338 338 336 336 336 336 337 338 336 337 344 345 342 342 342 346 4 25 33 26 20 23 36 48 69 112 125 127 129 133 137 143 147 150 155 156 154 153 151 148 146 149 154 152 150 158 171 176 173 170 173 178 181 184 189 194 196 196 196 200 206 213 220 233 244 245 241 245 249 248
336 334 333 335 336 337 337 337 337 338 338 337 337 337 339 340 339 339 340 339 337 338 338 335 338 343 344 342 346 353 10 31 27 22 22 24 29 54 76 84 100 109 114 123 130 133 137 140 142 147 147 145 148 150 144 135 129 138 147 148 147 151 156 165 179 180 169 161 172 187 189 189 184 179 179 193 210 222 230 236 241 245 250 250 250
336 334 334 335 337 338 338 338 338 339 339 339 340 340 341 341 341 342 343 343 342 341 339 337 340 345 346 346 352 3 21 32 23 20 28 33 34 53 72 87 109 118 122 129 133 137 140 138 137 140 142 138 134 134 134 133 132 136 144 148 146 141 138 143 157 156 149 146 160 174 160 153 161 165 172 198 218 220 220 225 235 244 249 250 248
337 335 335 336 337 338 339 339 339 340 340 340 341 342 342 343 343 343 343 345 346 345 342 340 343 346 347 349 355 2 9 16 22 28 30 27 29 42 48 43 91 136 151 154 149 147 145 143 145 154 157 152 149 147 145 144 144 143 144 149 152 153 155 157 152 150 156 159 146 118 100 95 114 126 116 103 237 212 200 214 236 241 239 246 251
338 336 336 337 337 338 340 341 341 341 341 341 342 343 344 345 345 344 344 346 348 347 345 344 345 347 348 351 356 360 0 3 12 18 18 15 15 16 360 342 350 23 77 150 158 158 160 162 166 173 171 164 165 168 168 163 162 160 156 154 158 162 166 167 156 141 144 149 142 130 115 101 110 111 84 32 268 159 123 133 266 256 243 244 251
338 337 337 338 338 338 340 342 342 342 342 342 343 344 345 346 346 345 346 348 348 347 348 349 349 350 351 353 355 358 357 354 355 359 2 2 0 354 344 342 351 9 8 352 19 163 177 183 179 172 166 162 165 174 178 174 175 176 169 168 174 174 165 160 155 147 144 140 133 133 123 112 116 108 61 32 94 111 56 1 327 284 266 269 266
338 337 338 338 338 339 340 342 342 343 343 344 343 342 344 346 346 346 347 349 348 348 350 352 352 352 354 355 356 358 357 355 353 353 350 350 352 349 343 344 349 347 327 328 338 309 202 200 189 182 187 181 173 176 180 179 183 187 185 187 193 186 164 160 170 168 162 152 129 119 109 106 116 110 70 50 65 76 37 8 16 22 352 326 312
337 337 337 337 337 338 339 341 342 342 343 343 343 342 342 344 346 346 347 348 348 349 351 352 352 352 354 354 355 356 356 355 355 352 345 345 351 352 347 346 350 348 338 337 341 331 264 234 215 214 222 219 199 189 193 196 197 202 206 206 204 199 197 201 199 185 176 171 157 127 102 93 97 97 81 61 50 48 48 40 30 19 358 343 336
336 335 336 336 336 337 338 339 341 341 341 342 342 342 342 343 344 345 346 347 347 348 349 350 351 351 352 354 355 355 355 355 355 355 351 346 346 349 353 357 358 352 345 346 350 343 318 291 267 250 249 246 231 212 211 217 222 231 238 235 224 219 229 235 231 223 215 202 192 197 160 118 97 69 64 64 53 46 43 36 29 24 15 5 358
335 335 335 334 334 335 335 337 338 338 339 339 339 340 341 342 343 343 343 345 346 346 346 347 349 350 351 352 353 354 355 356 358 360 0 356 347 344 350 355 356 353 349 347 347 345 340 329 312 289 271 261 253 241 234 237 241 246 252 256 255 249 248 247 242 235 232 224 217 224 229 191 99 50 35 34 47 49 40 26 20 18 12 10 16
334 334 334 333 333 333 334 335 336 336 338 338 338 337 339 340 340 341 342 342 344 345 345 345 346 348 349 350 351 351 353 355 356 358 1 1 355 346 343 344 347 349 348 342 339 342 344 342 332 315 290 273 268 264 259 256 255 256 260 266 270 266 259 256 251 240 232 232 234 237 238 232 223 286 353 328 327 15 18 11 7 5 5 15 25
334 334 333 333 333 333 334 335 335 336 337 338 337 336 337 337 338 339 339 340 341 342 342 342 343 344 346 348 349 349 350 351 352 354 356 357 354 349 346 343 341 340 338 334 332 334 337 338 334 326 315 298 284 276 271 267 266 266 267 269 271 270 266 264 259 249 238 236 238 243 246 245 236 237 269 284 283 309 327 338 352 358 5 19 22
Height
776 773 770 767 764 761 759 756 754 751 749 747 746 744 742 742 741 739 737 735 734 732 730 729 729 729 730 730 731 732 733 733 732 732 732 732 733 733 734 734 735 735 735 736 736 737 737 737 737 738 739 740 741 741 742 743 743 743 744 744 744 745 745 745 744 742 742 742 741 740 739 739 737 736 735 734 732 731 731 730 728 728 726 725 724
773 770 767 765 762 759 756 753 751 749 746 745 743 741 740 739 738 736 733 731 729 728 727 726 726 726 726 727 727 729 729 730 730 729 729 729 730 730 730 731 731 732 732 733 733 734 734 735 735 735 736 737 738 739 739 740 741 741 741 741 742 742 743 743 742 741 740 741 740 739 738 738 736 735 734 733 731 730 729 728 727 726 725 724 722
772 769 766 763 760 757 754 751 749 746 744 742 740 739 737 736 735 733 732 729 727 725 724 723 724 724 723 723 724 725 726 727 727 726 725 726 727 727 727 728 728 728 729 730 731 732 732 732 732 733 734 734 735 736 737 738 738 738 738 739 740 740 741 741 741 740 739 739 739 738 737 736 735 734 733 732 731 730 728 728 726 725 724 723 722
771 768 764 761 758 755 752 749 747 744 742 740 738 736 734 733 732 731 730 727 724 723 722 721 721 721 720 720 721 722 723 724 724 723 723 723 724 724 725 725 725 726 726 727 729 729 729 729 729 730 731 731 732 733 734 735 735 736 736 737 737 738 738 739 739 738 738 738 738 737 736 735 734 733 732 731 730 729 728 727 726 724 723 722 721
770 767 764 760 757 754 751 748 746 743 741 738 735 733 731 729 729 728 726 724 722 720 719 718 718 718 718 717 718 719 719 720 721 720 720 720 721 722 722 722 723 723 724 725 726 726 726 726 726 727 728 728 729 730 731 732 733 733 734 735 735 736 736 737 737 737 737 736 736 736 735 734 733 732 731 730 729 728 727 726 724 723 721 720 720
770 766 763 760 756 753 750 747 744 741 739 736 733 731 728 726 725 725 723 720 718 717 716 716 715 715 715 715 715 716 716 717 718 718 718 718 719 719 720 720 720 721 722 722 723 724 724 724 724 724 725 725 725 727 728 729 730 731 732 732 733 734 734 735 735 735 735 735 734 734 734 733 732 730 730 729 728 727 725 724 724 723 721 720 720
769 766 763 759 756 752 748 745 742 739 736 734 731 729 726 724 723 721 719 717 715 714 713 713 712 712 712 712 712 713 713 714 715 715 715 715 716 717 717 718 718 719 719 720 720 721 721 722 722 722 722 722 722 724 726 727 728 729 730 731 732 732 733 733 734 734 734 733 733 732 732 731 731 729 728 728 727 726 725 724 723 722 721 720 720
768 766 763 759 755 751 747 744 741 738 735 732 730 727 725 722 720 718 716 714 712 711 710 709 709 709 709 709 709 709 710 711 712 712 712 713 713 714 715 715 716 716 717 717 718 718 718 719 719 719 719 719 720 722 723 725 726 727 728 729 730 731 731 731 732 732 732 732 732 731 730 729 729 728 727 726 725 725 724 724 723 721 721 720 719
768 765 761 758 753 749 746 743 740 737 734 732 729 727 724 721 718 715 712 710 708 707 706 706 705 705 706 706 706 706 707 707 708 709 709 710 711 711 712 713 713 714 715 715 716 716 716 716 716 716 716 717 718 720 721 723 724 725 726 727 728 729 729 730 730 731 731 731 730 730 729 727 727 727 726 725 725 724 724 723 722 721 721 720 719
767 764 760 756 752 748 744 742 739 737 734 732 729 726 723 719 715 712 709 706 705 703 702 702 702 702 702 702 703 703 703 704 705 706 707 707 708 709 709 710 711 711 712 713 713 713 713 713 713 713 714 715 717 718 719 720 721 722 724 725 725 726 727 728 729 729 729 729 729 728 727 725 725 726 725 725 724 724 723 723 722 721 721 720 719
766 762 758 753 750 747 743 741 739 736 734 731 728 725 721 716 712 708 705 703 701 700 698 698 697 698 698 699 700 700 700 701 702 703 704 705 705 705 706 707 708 709 710 711 711 711 711 711 711 711 712 713 714 715 716 717 719 720 721 722 723 724 724 725 726 727 727 727 727 727 726 724 723 724 724 724 723 723 723 722 722 721 721 721 720
764 760 756 752 749 747 744 741 739 736 733 729 726 722 717 713 709 705 702 699 697 695 694 693 693 694 694 695 696 697 697 698 699 700 701 701 701 701 702 704 705 706 707 708 709 709 709 708 708 709 709 710 711 712 713 714 716 717 719 720 721 721 722 722 723 724 724 725 725 724 724 723 722 722 722 722 722 722 722 722 722 721 721 721 720
763 759 755 753 750 747 745 741 737 733 730 726 722 718 713 709 705 702 698 695 693 691 690 690 689 690 691 692 693 694 695 696 697 697 697 698 698 698 698 700 702 703 704 705 706 706 706 706 706 706 706 708 709 709 710 711 713 715 716 718 718 719 719 720 720 721 721 722 722 722 722 722 721 720 721 721 721 721 721 721 722 721 721 721 720
762 759 755 753 750 747 743 739 734 729 726 723 719 714 710 706 703 699 695 692 689 688 687 686 686 687 687 688 690 691 692 693 694 695 695 695 695 695 695 696 697 699 700 701 702 703 703 703 703 703 704 705 705 706 707 708 710 711 713 714 715 716 717 717 718 718 718 719 719 719 719 720 720 719 719 720 720 720 720 720 721 721 721 721 720
763 759 755 752 749 745 741 736 731 727 723 720 716 711 707 703 700 696 692 688 686 684 684 683 683 684 684 685 687 687 688 690 691 692 692 692 692 693 693 693 693 695 696 697 698 699 699 700 700 701 701 701 702 703 704 705 706 708 709 710 711 712 713 714 714 715 715 716 716 716 717 718 718 718 718 719 719 719 719 719 719 720 720 719 718
764 760 756 752 748 745 740 735 730 726 722 718 714 709 705 702 698 694 689 685 683 682 681 681 680 681 682 683 683 684 685 687 689 689 689 690 690 691 691 691 691 691 692 693 694 695 696 696 697 698 698 698 698 699 701 702 703 705 706 707 708 709 709 710 711 712 712 713 713 713 714 715 716 716 717 717 717 717 718 718 718 718 718 718 718
764 760 756 752 748 744 739 734 729 724 720 716 712 708 704 700 696 691 686 682 681 680 679 678 678 678 679 680 681 681 682 684 686 686 687 687 688 688 688 688 688 688 689 690 691 691 692 693 693 694 695 695 695 697 698 699 700 702 703 704 706 706 706 707 708 709 709 710 710 710 711 712 714 714 715 715 715 716 717 716 715 716 717 717 716
764 759 755 751 746 742 737 733 727 722 718 714 710 706 702 698 693 688 684 681 679 678 677 676 676 676 677 677 678 679 680 681 683 684 684 684 685 685 685 685 685 686 686 687 688 688 688 689 690 690 691 691 692 693 694 696 697 699 700 702 703 703 703 704 705 706 706 707 707 708 708 709 710 711 712 713 713 714 714 714 714 715 715 715 715
762 757 752 748 744 740 735 731 726 722 717 713 709 705 700 696 691 687 683 680 677 676 676 675 675 675 675 676 677 677 678 678 680 681 681 682 682 682 682 682 682 682 683 684 685 685 685 686 686 687 687 688 689 690 690 692 693 695 697 699 700 700 700 701 702 702 703 704 704 705 705 706 707 709 709 710 711 712 711 711 713 714 713 713 713
761 756 752 747 743 739 734 730 725 721 717 712 708 703 698 694 689 686 682 679 676 675 675 674 674 674 674 675 675 676 676 676 677 678 678 678 679 679 679 678 679 680 681 681 682 682 682 683 683 683 684 684 686 686 687 688 689 691 693 695 696 697 697 698 699 699 700 701 702 702 703 704 705 706 707 707 708 709 709 710 710 711 712 712 712
761 756 751 746 742 737 733 729 724 720 715 711 706 701 696 692 688 684 680 677 675 675 674 674 674 673 673 673 674 674 674 674 674 675 675 675 675 675 675 675 676 677 678 679 679 679 679 679 679 680 680 681 682 684 684 684 686 687 689 690 692 694 695 696 696 697 698 698 699 700 701 702 703 703 704 704 705 706 707 707 708 709 710 710 711
761 756 751 746 741 736 732 727 723 718 713 709 704 698 694 690 686 683 680 677 675 675 674 674 673 673 673 672 672 672 672 672 672 672 672 671 671 671 671 671 673 675 675 676 676 676 675 675 675 675 677 678 679 680 681 681 682 684 685 687 689 691 692 693 694 695 696 696 697 698 699 700 701 701 701 702 702 703 704 704 705 706 707 708 709
760 755 750 745 740 735 730 725 721 716 710 706 701 696 691 688 685 682 679 677 675 674 674 673 673 672 672 671 671 670 670 670 669 668 668 667 667 668 668 669 670 672 672 673 673 673 672 672 672 672 673 674 675 677 678 678 680 682 683 684 686 688 689 690 691 692 693 694 695 696 697 698 699 699 699 699 699 700 701 701 702 703 703 704 705
758 753 748 743 738 733 728 723 718 713 708 704 699 694 689 686 683 681 678 677 676 674 673 673 673 672 671 670 669 668 668 667 666 665 664 664 664 664 665 666 667 668 669 670 670 670 669 669 669 670 670 671 672 673 674 676 678 680 681 683 684 686 687 688 688 689 690 691 692 693 694 695 695 696 697 697 697 698 699 700 700 701 701 702 702
756 750 746 740 735 730 725 720 715 711 707 702 697 692 688 684 682 680 678 676 675 674 673 672 671 671 670 668 667 666 665 664 663 662 661 661 661 661 662 663 664 665 666 667 667 667 667 667 667 667 668 668 669 671 673 674 676 677 679 680 682 683 684 685 686 687 688 689 689 690 691 691 692 693 693 694 696 697 698 698 699 700 701 701 701
754 749 744 738 733 728 722 717 713 709 705 701 696 692 687 684 682 679 677 676 675 674 673 672 671 670 669 667 665 664 663 662 661 660 659 659 659 659 660 661 662 662 663 664 665 665 665 665 665 666 667 668 669 670 671 673 674 676 677 678 680 681 682 683 684 685 686 687 687 688 689 689 690 690 691 692 694 695 696 697 698 699 700 700 700
752 747 742 736 731 727 722 717 712 708 704 700 695 691 687 685 682 679 677 676 674 673 672 671 670 669 667 666 664 663 661 660 659 658 657 657 657 657 658 659 660 661 661 662 663 663 663 664 665 665 666 668 669 670 671 672 674 675 676 677 679 680 681 682 683 684 684 685 686 687 687 688 688 689 689 690 691 692 694 695 696 697 698 699 700
752 746 741 736 731 727 722 717 712 708 704 700 695 690 687 685 682 679 677 675 674 672 671 670 669 668 666 665 663 661 660 658 657 656 656 656 656 656 657 657 658 659 660 661 661 662 661 662 663 664 666 667 668 669 671 672 674 675 676 677 678 679 680 681 682 683 683 684 685 685 685 686 686 687 688 688 689 690 691 693 694 696 697 698 699
752 746 741 736 731 726 722 717 713 709 704 700 695 692 689 686 682 678 676 674 673 671 670 668 667 666 666 664 663 661 659 657 656 655 655 655 655 655 656 657 657 658 659 660 660 661 661 661 663 664 665 667 668 669 670 672 673 675 676 677 678 678 679 680 681 682 682 683 683 684 684 685 685 686 687 688 688 688 689 690 691 693 694 696 697
750 745 740 735 730 725 721 717 713 709 705 700 695 691 688 686 683 679 675 672 671 669 668 666 665 664 664 663 662 660 658 656 655 655 654 654 654 655 655 656 656 657 658 659 660 660 661 662 663 664 666 667 668 669 671 672 673 674 675 676 677 678 678 679 680 680 681 682 682 682 683 683 684 684 685 686 687 687 688 689 689 690 691 692 693
749 744 740 735 730 726 722 717 713 709 705 701 697 692 687 683 681 678 675 672 669 667 665 664 663 663 662 661 660 659 658 656 655 654 654 653 653 654 654 655 655 656 657 658 659 660 660 662 663 664 666 667 668 670 671 672 673 674 675 675 676 677 677 678 678 679 679 680 680 681 681 682 682 683 684 684 685 686 687 688 688 689 689 689 690
751 745 740 735 731 727 723 718 714 709 705 701 697 694 689 683 678 675 673 671 668 665 663 661 661 660 660 659 659 658 656 656 655 654 653 653 652 653 653 653 654 654 655 656 658 659 660 661 662 663 665 666 668 669 670 671 672 673 674 675 675 675 676 676 676 677 677 678 678 679 680 680 681 681 682 683 683 684 685 686 686 687 687 688 688
752 746 740 735 731 727 723 719 714 710 706 702 698 695 691 686 681 676 672 669 667 664 662 660 660 659 658 658 658 656 655 655 655 654 653 652 652 652 652 652 653 653 654 656 657 659 660 661 662 663 665 666 667 668 669 670 671 672 673 674 674 674 674 674 675 675 676 676 677 677 678 679 679 680 680 681 682 682 683 683 684 684 685 686 686
751 746 741 736 732 727 723 719 715 711 707 703 700 696 692 689 685 681 676 671 668 665 662 661 659 658 658 657 656 655 654 653 654 654 653 652 652 652 653 653 654 655 656 657 659 660 661 662 663 664 665 666 667 668 669 670 671 671 672 673 673 673 673 673 674 674 674 675 676 676 677 678 678 678 678 679 679 680 680 681 681 682 683 684 684
750 745 741 737 733 728 724 720 716 712 708 704 701 698 694 690 687 684 680 677 673 669 666 663 661 660 659 657 656 654 653 652 653 654 653 653 653 653 654 655 656 657 658 659 660 661 662 662 663 664 665 666 667 668 668 669 670 670 671 671 672 672 672 672 673 673 674 674 675 675 676 676 676 677 677 677 678 678 679 679 680 680 681 683 683
749 745 740 736 733 729 725 721 717 713 709 705 702 699 695 692 688 685 682 679 676 673 670 667 664 662 661 660 658 656 655 654 654 654 654 654 654 654 655 657 658 659 660 660 661 661 662 662 663 664 664 665 666 667 667 668 669 669 670 671 671 671 672 672 673 673 673 674 674 674 675 675 675 676 676 676 677 678 678 679 679 679 680 681 681
749 745 741 736 733 729 725 721 717 714 710 706 703 699 696 693 690 686 683 680 677 675 672 669 666 664 662 661 660 659 658 658 657 656 656 656 656 656 657 658 659 660 661 661 661 662 662 663 663 664 664 665 665 666 666 667 668 669 669 670 670 671 672 672 672 672 673 673 674 674 674 674 675 675 676 676 677 677 678 679 679 679 680 680 680
749 746 742 737 733 729 725 721 717 714 710 707 703 700 697 693 690 688 685 682 679 676 674 671 669 667 665 663 662 661 660 659 659 658 658 658 658 659 659 660 660 660 661 661 662 662 663 663 663 664 664 664 665 665 666 667 668 668 669 669 670 671 672 672 672 672 673 673 673 673 674 674 674 675 675 676 677 677 678 678 679 679 679 679 679
749 745 741 738 734 730 726 722 718 714 711 707 704 701 697 694 691 689 686 683 681 678 675 673 671 669 668 666 664 663 661 661 660 660 660 660 660 661 661 661 661 661 661 662 662 663 663 663 664 664 665 665 665 666 666 667 668 668 669 669 670 671 671 672 672 672 673 673 673 673 673 674 674 674 675 675 676 677 677 678 678 678 678 678 678
748 744 740 737 734 731 727 723 719 716 712 708 705 702 698 695 692 690 687 684 682 679 677 675 673 671 670 668 666 664 663 663 663 662 662 662 662 662 662 662 662 662 662 662 663 663 664 664 664 665 665 665 666 666 666 667 668 668 669 670 670 671 671 672 672 672 673 673 673 673 673 673 673 673 674 675 675 676 676 677 677 677 677 677 678
749 744 741 738 734 731 727 724 720 717 714 710 706 703 700 697 694 691 688 686 683 681 679 677 675 673 671 669 667 666 665 664 664 664 664 664 663 663 663 663 663 663 663 663 664 664 664 665 665 665 665 666 666 666 666 667 668 668 669 669 670 671 671 671 672 672 672 672 672 672 672 672 672 673 673 674 675 675 676 676 676 677 677 677 677
749 745 741 738 735 731 728 724 721 718 714 711 707 704 701 698 695 692 690 687 685 683 680 678 676 675 673 671 669 668 666 666 666 665 665 665 665 664 664 664 664 663 663 663 664 664 665 665 665 665 666 666 666 666 666 667 668 668 669 669 670 670 671 671 671 671 672 672 672 672 671 672 672 672 673 673 674 674 674 675 675 676 676 676 677
750 746 743 739 736 733 730 726 723 719 716 712 709 706 703 700 697 694 691 689 687 684 682 680 678 676 674 672 671 670 668 668 667 666 666 666 666 666 665 665 664 664 664 664 664 664 665 665 665 665 666 666 666 666 666 667 667 668 669 669 670 670 670 670 670 671 671 671 671 671 671 671 672 672 672 673 673 673 674 674 674 675 675 675 676
751 747 744 740 737 734 731 728 724 721 718 714 711 708 705 702 699 696 693 690 688 686 684 681 679 677 675 674 673 671 670 670 669 668 668 667 667 667 666 665 665 665 664 664 664 665 665 665 665 665 666 666 666 666 667 667 667 668 669 669 669 669 670 670 670 670 670 671 671 671 671 671 671 672 672 672 672 672 673 673 673 674 674 674 675
751 748 744 741 738 734 731 729 726 723 719 716 712 709 706 703 701 698 695 692 690 687 685 683 681 679 677 675 674 673 672 671 670 670 669 668 668 668 667 666 666 665 665 665 665 665 665 665 665 665 666 666 666 666 667 667 668 668 669 669 669 669 669 670 670 670 670 670 670 671 671 671 671 671 671 672 672 672 672 672 672 673 673 673 673
751 748 744 741 738 734 732 729 726 723 720 717 714 711 708 705 702 700 697 695 692 689 687 685 683 681 679 677 676 675 673 672 672 671 670 670 669 668 668 667 667 666 666 665 665 665 665 665 665 665 666 666 666 667 667 667 668 668 668 669 669 669 669 670 670 670 670 670 670 670 670 671 671 671 671 671 671 671 671 672 672 672 672 672 672
752 749 745 742 739 735 732 729 726 724 721 718 716 713 710 707 704 702 699 697 694 692 689 687 685 683 681 679 678 676 675 674 673 672 671 670 670 669 669 668 667 667 666 666 666 666 666 665 666 666 666 666 666 667 667 667 667 668 668 668 669 669 669 669 669 670 670 670 670 670 670 670 671 670 670 671 671 671 671 671 671 671 671 671 671
752 749 746 743 740 737 733 730 727 725 722 719 717 714 711 709 706 704 701 698 696 693 691 689 687 685 683 681 679 678 676 675 674 673 672 671 670 670 669 669 668 668 667 667 666 666 666 666 666 666 666 666 666 666 666 667 667 667 667 668 668 668 668 669 669 669 669 669 669 670 670 670 670 670 670 670 670 671 671 671 671 670 670 670 671
752 750 747 744 741 738 735 732 729 726 724 721 718 715 713 710 708 705 703 700 698 695 693 691 689 687 685 683 681 679 678 676 675 674 673 672 671 670 669 669 668 668 667 667 667 666 666 666 666 666 666 666 666 666 666 666 666 667 667 667 667 667 668 668 668 668 668 669 669 669 669 669 670 670 670 670 670 670 670 670 670 670 670 670 670
752 749 747 744 742 739 736 734 731 728 725 723 719 716 714 711 709 706 704 702 699 697 694 692 690 688 686 684 683 681 679 677 676 675 674 673 672 671 670 669 668 668 667 667 666 666 666 665 665 665 666 666 666 665 665 665 666 666 666 666 666 666 666 667 667 667 668 668 668 668 669 669 669 669 669 669 669 670 670 670 670 670 670 670 670
751 749 746 744 741 739 736 734 731 728 726 723 721 718 715 712 710 707 705 703 700 698 696 693 691 690 688 686 684 682 680 679 677 676 674 673 672 671 670 670 669 668 667 667 666 666 665 665 665 665 665 665 665 665 665 664 665 665 665 665 665 665 665 666 666 666 667 667 667 668 668 668 668 668 669 669 669 669 669 669 669 669 669 669 669